Regional Weather Roundup
Issued by NWS Nashville, TN

Home | Current Version | Previous Version | Text Only | Print | Product List | Glossary On
Versions: 1 2 3 4 5 6 7 8 9 10 11 12 13 14 15 16 17 18 19 20 21 22 23 24 25 26 27 28 29 30 31 32 33 34 35 36 37 38 39 40 41 42 43 44 45 46 47 48 49 50
000
ASUS44 KOHX 041915
RWROHX
MIDDLE TENNESSEE HOURLY WEATHER ROUNDUP
NATIONAL WEATHER SERVICE NASHVILLE TN
100 PM CST WED MAR 04 2015

NOTE: "FAIR" INDICATES FEW OR NO CLOUDS BELOW 12,000 FEET WITH
NO SIGNIFICANT WEATHER AND/OR OBSTRUCTIONS TO VISIBILITY.

* THESE REPORTS ARE NOT UNDER NWS QUALITY CONTROL AND MAY NOT
  REPORT WEATHER SUCH AS PRECIPITATION AND FOG.


TNZ005>011-023>034-057-059-062>066-078-080-042000
...NORTHERN MIDDLE TENNESSEE...

CITY           SKY/WX    TMP DP  RH WIND       PRES   REMARKS
CLARKSVILLE    RAIN      36  34  92 N18       29.99F FOG     WCI  26
CROSSVILLE     LGT RAIN  60  57  89 NW8       29.86F FOG
GALLATIN       CLOUDY    45  45 100 N13       29.94F
DICKSON        CLOUDY    37  37 100 N14       29.94R WCI  29
LIVINGSTON     CLOUDY    52  51  96 NE9       29.89  VSB 3/4
NASHVILLE      RAIN      46  44  93 N13       29.94S FOG
PORTLAND       CLOUDY    39  39 100 N6G16     29.94F WCI  35
SMYRNA         HVY RAIN  46  45  93 N14       29.92F FOG
SPARTA         CLOUDY    52  52 100 NE10      29.87F
$$
TNZ056-058-060-061-075>077-079-093>097-042000
...SOUTHERN MIDDLE TENNESSEE...

CITY           SKY/WX    TMP DP  RH WIND       PRES   REMARKS
COLUMBIA       CLOUDY   N/A N/A N/A N7        29.87S
LEWISBURG      CLOUDY    52  51  96 E5        29.88F VSB 1
MCMINNVILLE    CLOUDY    54  54 100 N8        29.88F
MURFREESBORO   CLOUDY    48  48 100 N9        29.90F
SHELBYVILLE    CLOUDY    54  54 100 NE8       29.87F
TULLAHOMA      CLOUDY    63  57  82 N8        29.85F
WINCHESTER     CLOUDY    72  61  68 SW22G30   29.86F
$$


...KEY TO REMARKS...
VSB - VISIBILITY IN MILES
WCI - WIND CHILL INDEX
HX  - HEAT INDEX




USA.gov is the U.S. government's official web portal to all federal, state and local government web resources and services.